TimeEST,TemperatureF,Dew PointF,Humidity,Sea Level PressureIn,VisibilityMPH,Wind Direction,Wind SpeedMPH,Gust SpeedMPH,PrecipitationIn,Events,Conditions,WindDirDegrees,DateUTC
12:53 AM,42.1,27.0,55,30.04,10.0,West,8.1,-,N/A,,Clear,280,2013-02-09 05:53:00
1:53 AM,41.0,26.1,55,30.05,10.0,West,10.4,-,N/A,,Clear,280,2013-02-09 06:53:00
2:53 AM,37.0,26.1,65,30.06,10.0,NW,6.9,-,N/A,,Clear,310,2013-02-09 07:53:00
3:53 AM,36.0,25.0,64,30.07,10.0,WNW,5.8,-,N/A,,Clear,300,2013-02-09 08:53:00
4:53 AM,36.0,24.1,62,30.11,10.0,West,4.6,-,N/A,,Clear,270,2013-02-09 09:53:00
5:53 AM,35.1,24.1,64,30.14,10.0,West,6.9,-,N/A,,Clear,270,2013-02-09 10:53:00
6:53 AM,35.1,23.0,61,30.18,10.0,WNW,4.6,-,N/A,,Clear,300,2013-02-09 11:53:00
7:53 AM,36.0,23.0,59,30.22,10.0,NW,5.8,-,N/A,,Clear,310,2013-02-09 12:53:00
8:53 AM,39.9,21.9,49,30.25,10.0,NW,11.5,-,N/A,,Clear,320,2013-02-09 13:53:00
9:53 AM,43.0,19.9,40,30.26,10.0,NW,15.0,20.7,N/A,,Clear,310,2013-02-09 14:53:00
10:53 AM,46.0,19.9,35,30.27,10.0,NNW,11.5,-,N/A,,Clear,330,2013-02-09 15:53:00
11:53 AM,48.0,19.0,32,30.27,10.0,NW,9.2,-,N/A,,Clear,320,2013-02-09 16:53:00
12:53 PM,50.0,17.1,27,30.25,10.0,NW,10.4,-,N/A,,Clear,320,2013-02-09 17:53:00
1:53 PM,52.0,17.1,25,30.25,10.0,NW,9.2,-,N/A,,Clear,310,2013-02-09 18:53:00
2:53 PM,52.0,16.0,24,30.25,10.0,NNW,11.5,-,N/A,,Clear,330,2013-02-09 19:53:00
3:53 PM,52.0,15.1,23,30.25,10.0,NW,8.1,-,N/A,,Clear,310,2013-02-09 20:53:00
4:53 PM,51.1,16.0,25,30.27,10.0,NW,9.2,-,N/A,,Clear,320,2013-02-09 21:53:00
5:53 PM,46.0,16.0,30,30.29,10.0,NNW,5.8,-,N/A,,Clear,340,2013-02-09 22:53:00
6:53 PM,37.9,21.9,53,30.32,10.0,Calm,Calm,-,N/A,,Clear,0,2013-02-09 23:53:00
7:53 PM,37.0,21.0,52,30.33,10.0,Calm,Calm,-,N/A,,Clear,0,2013-02-10 00:53:00
8:53 PM,33.1,21.9,64,30.35,10.0,Calm,Calm,-,N/A,,Clear,0,2013-02-10 01:53:00
9:53 PM,28.9,21.9,75,30.37,10.0,Calm,Calm,-,N/A,,Clear,0,2013-02-10 02:53:00
10:53 PM,28.9,23.0,78,30.37,10.0,Calm,Calm,-,N/A,,Clear,0,2013-02-10 03:53:00
11:53 PM,28.9,25.0,85,30.37,10.0,Calm,Calm,-,N/A,,Clear,0,2013-02-10 04:53:00